Starlink 31451

operational
NORAD ID: 59366 Int'l Des: 2024-060 Owner: SPXS Country: US Constellation: starlink
LEOCIRCULAR

About Starlink 31451

Description loading...

Live Position

Loading 3D Globe...

Upcoming Passes

Altitude History

Altitude vs Time

uPlot chart will show altitude changes over time

Two-Line Element Set

1 59366U 24060U 25350.36714407 -.00001216 00000-0 -34662-4 0 9995
2 59366 43.0035 10.0807 0001496 287.9914 72.0775 15.27579911 97328
Epoch: Dec 16, 2025 • Age: 15 hours

Current Status

Altitude 490.8 km
Velocity 7.62 km/s
Sub-Earth Point -30.42°S, 140.51°E
Launch Date Mar 31, 2024
Age 1.7 years
Type internet

Technical Details

Classification Payload
Mass 730.00 kg
Dry Mass 700.00 kg
Total Mass 730.00 kg
Length 0.30 m
Diameter 4.10 m
Span 29.00 m
Shape Box + pan
Manufacturer SPXS
Bus Type Starlink V2M
Phase Status In Orbit
Owner/State SPXS/US

Large Constellations

Loading constellations...